Lakeview, OR

1:24 AM PST on February 10, 2016 (GMT -0800)
Lake County

Weather History for KLKV - November, 2012

Change the Weather History Date:

Saturday, November 24, 2012

  Actual Average (KAAT) Record (KAAT)
Temperature  
Mean Temperature 37 °F 33 °F  
Max Temperature 53 °F 45 °F 70 °F (1914)
Min Temperature 21 °F 21 °F -4 °F (1993)
Degree Days  
Heating Degree Days 28 32  
Month to date heating degree days 671  
Since 1 July heating degree days 1614  
Cooling Degree Days 0 0  
Month to date cooling degree days 0  
Year to date cooling degree days 156  
Moisture  
Dew Point 31 °F    
Average Humidity 78    
Maximum Humidity 100    
Minimum Humidity 44    
Precipitation  
Precipitation 0.00 in 0.06 in 0.69 in (1953)
Month to date precipitation 1.46  
Year to date precipitation 12.13  
Sea Level Pressure  
Sea Level Pressure 30.19 in    
Wind  
Wind Speed 3 mph (South)    
Max Wind Speed 14 mph    
Max Gust Speed -    
Visibility 10 miles    
Events      
T = Trace of Precipitation, MM = Missing Value Source: NWS Daily Summary

Daily Weather History Graph

Daily Weather History Graph

Search for Another Location

Airport or City:

Trip Planner

Search our weather history database for the weather conditions in past years. The results will help you decide how hot, cold, wet, or windy it might be!

Date:

Astronomy

Nov. 24, 2012 Rise Set
Actual Time 7:03 AM PST 4:33 PM PST
Civil Twilight 6:32 AM PST 5:04 PM PST
Nautical Twilight 5:58 AM PST 5:38 PM PST
Astronomical Twilight 5:24 AM PST 6:12 PM PST
Moon 2:23 PM PST (11/24) 3:22 AM PST (11/24)
Length of Visible Light 10h 31m
Length of Day
9h 29m
Waxing Gibbous, 88% of the Moon is Illuminated
Nov 24
Waxing Gibbous
Nov 28
Full
Dec 6
Last Quarter
Dec 13
New
Dec 19
First Quarter

Hourly Weather History & Observations

Time (PST) Temp. Windchill Dew Point Humidity Pressure Visibility Wind Dir Wind Speed Gust Speed Precip Events Conditions
12:15 AM 24.8 °F 20.5 °F 24.8 °F 100% 30.29 in 10.0 mi ESE 3.5 mph - N/A   Clear
12:35 AM 24.8 °F - 21.2 °F 86% 30.29 in 10.0 mi Calm Calm - N/A   Clear
12:55 AM 23.0 °F - 21.2 °F 93% 30.29 in 10.0 mi Calm Calm - N/A   Clear
1:15 AM 24.8 °F - 21.2 °F 86% 30.29 in 10.0 mi Calm Calm - N/A   Clear
1:55 AM 23.0 °F - 21.2 °F 93% 30.29 in 10.0 mi Calm Calm - N/A   Clear
2:15 AM 24.8 °F - 21.2 °F 86% 30.29 in 10.0 mi Calm Calm - N/A   Clear
2:35 AM 23.0 °F 18.4 °F 21.2 °F 93% 30.28 in 10.0 mi ESE 3.5 mph - N/A   Clear
2:55 AM 23.0 °F - 19.4 °F 86% 30.28 in 10.0 mi Calm Calm - N/A   Clear
3:15 AM 23.0 °F - 21.2 °F 93% 30.27 in 10.0 mi Calm Calm - N/A   Clear
3:35 AM 23.0 °F 15.8 °F 21.2 °F 93% 30.27 in 10.0 mi NNW 5.8 mph - N/A   Clear
3:55 AM 23.0 °F 18.4 °F 21.2 °F 93% 30.27 in 10.0 mi North 3.5 mph - N/A   Clear
4:15 AM 23.0 °F - 21.2 °F 93% 30.26 in 10.0 mi Calm Calm - N/A   Clear
4:35 AM 21.2 °F - 19.4 °F 93% 30.26 in 10.0 mi Calm Calm - N/A   Clear
4:55 AM 21.2 °F 16.4 °F 19.4 °F 93% 30.26 in 10.0 mi NNW 3.5 mph - N/A   Clear
5:15 AM 21.2 °F - 19.4 °F 93% 30.26 in 10.0 mi Calm Calm - N/A   Clear
5:35 AM 21.2 °F 13.6 °F 19.4 °F 93% 30.27 in 10.0 mi WNW 5.8 mph - N/A   Clear
5:55 AM 21.2 °F - 19.4 °F 93% 30.27 in 10.0 mi Calm Calm - N/A   Clear
6:15 AM 21.2 °F - 21.2 °F 100% 30.26 in 10.0 mi Calm Calm - N/A   Clear
6:35 AM 21.2 °F 16.4 °F 21.2 °F 100% 30.26 in 10.0 mi SSW 3.5 mph - N/A   Clear
6:55 AM 23.0 °F 14.7 °F 19.4 °F 86% 30.26 in 10.0 mi West 6.9 mph - N/A   Clear
7:15 AM 24.8 °F 17.9 °F 23.0 °F 93% 30.26 in 10.0 mi South 5.8 mph - N/A   Clear
7:35 AM 23.0 °F - 19.4 °F 86% 30.26 in 10.0 mi Calm Calm - N/A   Clear
7:55 AM 24.8 °F 17.9 °F 21.2 °F 86% 30.26 in 10.0 mi South 5.8 mph - N/A   Clear
8:15 AM 32.0 °F 26.4 °F 30.2 °F 93% 30.26 in 10.0 mi SSW 5.8 mph - N/A   Scattered Clouds
8:35 AM 35.6 °F - 32.0 °F 87% 30.27 in 10.0 mi Calm Calm - N/A   Partly Cloudy
8:55 AM 37.4 °F - 32.0 °F 81% 30.27 in 10.0 mi Calm Calm - N/A   Scattered Clouds
9:15 AM 37.4 °F - 32.0 °F 81% 30.27 in 10.0 mi Calm Calm - N/A   Mostly Cloudy
9:35 AM 39.2 °F 37.0 °F 32.0 °F 75% 30.27 in 10.0 mi SSW 3.5 mph - N/A   Overcast
9:55 AM 39.2 °F 37.0 °F 32.0 °F 75% 30.26 in 10.0 mi South 3.5 mph - N/A   Overcast
10:15 AM 39.2 °F 35.9 °F 33.8 °F 81% 30.25 in 10.0 mi SE 4.6 mph - N/A   Mostly Cloudy
10:35 AM 42.8 °F - 33.8 °F 70% 30.25 in 10.0 mi Calm Calm - N/A   Partly Cloudy
10:55 AM 44.6 °F 42.2 °F 33.8 °F 66% 30.25 in 10.0 mi South 4.6 mph - N/A   Mostly Cloudy
11:15 AM 44.6 °F 41.4 °F 32.0 °F 61% 30.24 in 10.0 mi SSE 5.8 mph - N/A   Scattered Clouds
11:35 AM 44.6 °F 41.4 °F 30.2 °F 57% 30.23 in 10.0 mi SE 5.8 mph - N/A   Partly Cloudy
11:55 AM 48.2 °F - 32.0 °F 54% 30.21 in 10.0 mi SE 8.1 mph - N/A   Clear
12:15 PM 48.2 °F - 30.2 °F 50% 30.20 in 10.0 mi SSE 5.8 mph - N/A   Partly Cloudy
12:35 PM 51.8 °F - 32.0 °F 47% 30.19 in 10.0 mi South 6.9 mph - N/A   Partly Cloudy
12:55 PM 53.6 °F - 33.8 °F 47% 30.19 in 10.0 mi SSW 6.9 mph - N/A   Scattered Clouds
1:15 PM 51.8 °F - 33.8 °F 50% 30.18 in 10.0 mi SSW 8.1 mph - N/A   Overcast
1:35 PM 51.8 °F - 30.2 °F 44% 30.18 in 10.0 mi South 9.2 mph - N/A   Scattered Clouds
1:55 PM 51.8 °F - 35.6 °F 54% 30.17 in 10.0 mi South 6.9 mph - N/A   Mostly Cloudy
2:15 PM 51.8 °F - 35.6 °F 54% 30.16 in 10.0 mi South 6.9 mph - N/A   Overcast
2:35 PM 51.8 °F - 37.4 °F 58% 30.16 in 10.0 mi South 6.9 mph - N/A   Overcast
2:55 PM 51.8 °F - 37.4 °F 58% 30.15 in 10.0 mi South 3.5 mph - N/A   Overcast
3:15 PM 51.8 °F - 39.2 °F 62% 30.14 in 10.0 mi SSE 3.5 mph - N/A   Overcast
3:35 PM 51.8 °F - 39.2 °F 62% 30.13 in 10.0 mi SSE 4.6 mph - N/A   Overcast
3:55 PM 51.8 °F - 39.2 °F 62% 30.13 in 10.0 mi SSE 3.5 mph - N/A   Mostly Cloudy
4:15 PM 50.0 °F - 39.2 °F 66% 30.13 in 10.0 mi South 4.6 mph - N/A   Partly Cloudy
4:35 PM 46.4 °F 43.5 °F 37.4 °F 71% 30.13 in 10.0 mi South 5.8 mph - N/A   Scattered Clouds
4:55 PM 44.6 °F 42.2 °F 37.4 °F 76% 30.12 in 10.0 mi South 4.6 mph - N/A   Mostly Cloudy
5:15 PM 42.8 °F 39.3 °F 37.4 °F 81% 30.11 in 10.0 mi SSW 5.8 mph - N/A   Mostly Cloudy
5:35 PM 41.0 °F 38.0 °F 35.6 °F 81% 30.11 in 10.0 mi SE 4.6 mph - N/A   Overcast
5:55 PM 42.8 °F - 37.4 °F 81% 30.10 in 10.0 mi Calm Calm - N/A   Mostly Cloudy
6:15 PM 42.8 °F 40.1 °F 37.4 °F 81% 30.11 in 10.0 mi SW 4.6 mph - N/A   Scattered Clouds
6:35 PM 42.8 °F 38.6 °F 37.4 °F 81% 30.10 in 10.0 mi SSW 6.9 mph - N/A   Mostly Cloudy
6:55 PM 42.8 °F 40.1 °F 37.4 °F 81% 30.10 in 10.0 mi SSE 4.6 mph - N/A   Overcast
7:15 PM 42.8 °F 40.1 °F 39.2 °F 87% 30.10 in 10.0 mi South 4.6 mph - N/A   Overcast
7:35 PM 42.8 °F 39.3 °F 37.4 °F 81% 30.10 in 10.0 mi SSE 5.8 mph - N/A   Overcast
7:55 PM 42.8 °F 38.6 °F 37.4 °F 81% 30.10 in 10.0 mi SSE 6.9 mph - N/A   Mostly Cloudy
8:15 PM 44.6 °F 41.4 °F 39.2 °F 81% 30.09 in 10.0 mi SSE 5.8 mph - N/A   Overcast
8:35 PM 44.6 °F 43.1 °F 39.2 °F 81% 30.09 in 10.0 mi SE 3.5 mph - N/A   Overcast
8:55 PM 44.6 °F 42.2 °F 39.2 °F 81% 30.09 in 10.0 mi SSE 4.6 mph - N/A   Overcast
9:15 PM 44.6 °F 41.4 °F 39.2 °F 81% 30.09 in 10.0 mi SSE 5.8 mph - N/A   Mostly Cloudy
9:35 PM 44.6 °F 40.2 °F 37.4 °F 76% 30.09 in 10.0 mi ESE 8.1 mph - N/A   Scattered Clouds
9:55 PM 46.4 °F 44.3 °F 39.2 °F 76% 30.09 in 10.0 mi SSW 4.6 mph - N/A   Scattered Clouds
10:15 PM 44.6 °F 40.7 °F 37.4 °F 76% 30.09 in 10.0 mi SSE 6.9 mph - N/A   Overcast
10:35 PM 46.4 °F 41.9 °F 41.0 °F 81% 30.09 in 10.0 mi West 9.2 mph - N/A   Overcast
10:55 PM 46.4 °F 40.4 °F 41.0 °F 81% 30.08 in 10.0 mi West 13.8 mph - N/A   Mostly Cloudy
11:15 PM 46.4 °F 40.7 °F 39.2 °F 76% 30.08 in 10.0 mi WSW 12.7 mph - N/A   Overcast
11:35 PM 44.6 °F 39.7 °F 41.0 °F 87% 30.09 in 10.0 mi WSW 9.2 mph - N/A   Overcast
11:55 PM 44.6 °F 42.2 °F 41.0 °F 87% 30.09 in 10.0 mi West 4.6 mph - N/A   Overcast